RH
18 20 19 16 15 14 27 26 47 72 100 100 99 99 99 99 99 98 98 99 98 99 99 96 93 99 100 96 83 28 15 14 10 12 8 7 6 5 4 5 8 26 32
19 23 25 19 13 11 10 10 22 78 86 96 96 100 98 99 99 99 98 100 99 100 100 100 99 100 100 90 51 19 19 14 14 12 9 10 8 5 6 11 35 53 44
30 30 28 26 21 19 18 15 13 10 9 10 28 54 95 99 100 100 99 98 100 100 100 99 100 100 100 78 44 23 18 19 15 12 12 12 10 8 13 47 56 67 55
23 20 14 8 9 9 9 11 11 12 10 9 9 15 58 93 98 100 100 100 100 100 99 100 100 100 100 87 52 25 25 21 16 15 17 15 11 12 32 68 71 72 65
7 7 6 5 5 8 20 20 19 19 12 19 29 62 74 100 100 100 100 100 100 100 100 100 100 100 100 79 43 32 23 24 19 21 17 14 17 18 46 74 75 73 79
14 21 20 14 16 26 36 67 69 77 100 72 90 91 100 100 100 100 100 100 100 100 100 100 100 100 100 66 44 36 42 25 23 20 15 18 22 29 45 67 69 83 87
35 31 30 23 26 38 45 45 67 68 87 100 78 95 100 88 100 100 100 100 100 100 100 100 100 100 99 69 51 49 31 29 24 16 21 23 30 36 45 62 75 69 84
38 75 76 76 63 35 37 60 60 94 65 78 100 78 98 96 100 100 100 100 100 100 100 100 100 100 98 82 53 36 32 28 19 21 26 33 39 34 40 71 52 87 72
14 38 86 89 82 72 59 71 52 78 76 85 99 100 100 100 100 100 100 100 100 100 100 100 100 100 89 50 37 34 31 22 23 35 42 46 43 35 36 53 48 43 57
10 11 87 90 95 100 100 100 100 100 100 100 100 100 100 100 100 99 100 100 100 100 100 100 100 81 57 55 38 31 27 26 40 54 54 48 40 43 36 38 37 37 45
8 9 14 94 100 100 98 100 100 100 100 100 100 100 100 100 100 100 100 100 100 100 100 100 100 95 56 40 33 30 34 36 56 67 55 45 45 54 44 26 25 28 26
8 8 9 25 99 100 100 100 100 100 100 100 100 100 100 100 100 100 100 100 100 100 100 100 91 68 48 40 32 34 44 58 75 72 55 51 42 38 34 32 34 32 31
9 9 10 10 45 99 100 100 100 100 100 100 100 100 100 100 100 100 100 100 95 100 97 83 62 48 40 34 33 52 64 86 97 86 71 67 54 44 48 67 68 46 41
10 11 11 12 9 54 100 100 100 100 100 100 100 100 100 100 100 100 99 99 93 76 57 47 34 26 28 38 57 80 93 100 100 100 96 94 78 58 59 72 79 77 64
18 18 16 13 12 12 88 100 100 100 100 100 99 100 100 100 99 96 88 75 44 27 25 23 22 31 47 66 80 100 100 100 100 100 100 100 100 91 90 96 95 92 79
36 36 28 19 15 10 14 87 100 100 100 100 100 100 98 98 100 96 64 35 30 28 23 34 51 60 65 70 73 88 100 100 100 100 100 100 100 100 100 100 100 96 95
32 49 32 22 17 14 11 44 99 100 100 100 100 97 95 91 95 78 55 42 34 37 48 64 80 78 82 83 92 92 100 100 100 100 100 100 100 100 100 100 100 100 100
99 94 38 84 18 15 15 21 100 100 100 100 100 96 97 99 86 69 58 53 50 59 78 86 90 92 99 97 97 90 100 100 100 100 100 100 100 100 100 100 98 92 84
95 92 98 100 100 97 95 94 97 100 100 100 96 98 100 100 96 82 76 79 76 83 95 88 100 100 100 100 100 100 100 100 100 100 100 99 100 100 100 92 91 87 82
65 79 99 98 100 100 100 100 98 95 94 95 96 94 88 79 74 69 72 80 91 100 100 100 100 100 100 99 100 100 100 100 100 100 100 100 100 100 100 96 93 92 89
70 85 94 100 100 100 100 100 98 93 90 95 98 94 92 92 96 99 98 98 100 100 100 100 100 100 100 100 100 100 100 100 100 100 100 100 100 100 100 98 96 95 95
79 82 79 89 97 99 100 100 99 97 95 92 94 95 96 100 100 100 100 100 100 100 100 100 100 100 100 100 100 100 100 100 100 100 100 100 100 100 100 99 98 97 96
14 14 15 15 15 15 15 15 15 15 16 17 17 18 25 69 100 100 100 100 100 100 100 100 100 100 100 100 100 100 100 100 100 100 100 100 100 100 100 100 100 100 96
14 17 19 20 21 21 20 19 18 17 18 19 22 24 29 39 85 100 100 100 100 100 100 100 100 100 100 100 100 100 100 100 100 100 100 100 100 100 100 100 100 94 90
16 21 25 25 24 20 17 14 14 14 18 26 40 62 63 76 100 100 100 100 100 100 100 100 100 100 100 100 100 100 100 100 100 100 100 100 100 100 100 98 95 90 79
21 25 27 22 16 12 11 13 17 24 32 64 93 89 90 91 99 100 100 100 100 100 100 100 100 100 100 100 100 100 100 100 100 100 100 100 100 99 94 86 81 77 72
Wind_Speed
58 57 56 54 52 54 55 58 57 55 55 57 56 60 68 67 66 66 64 64 61 56 53 48 46 49 55 38 40 44 42 41 40 40 41 47 50 54 62 62 52 46 44
66 66 64 61 58 57 56 55 57 59 60 60 58 57 56 59 63 61 61 62 60 59 58 47 47 50 43 38 41 43 45 42 40 39 44 47 52 54 58 55 45 44 41
68 66 66 67 65 64 63 60 59 59 58 58 59 58 56 55 54 58 58 62 60 55 47 45 47 46 39 40 43 47 46 39 39 40 45 48 54 53 50 48 45 42 38
66 67 67 68 67 68 69 68 66 66 63 61 59 58 57 53 49 49 52 53 56 55 48 45 47 45 41 42 43 44 41 38 41 43 45 48 51 47 44 43 44 36 33
70 72 74 75 72 65 60 59 60 60 60 60 59 56 53 53 48 50 53 54 56 51 46 44 49 46 39 39 41 43 40 38 42 41 44 46 41 39 38 37 38 30 27
62 58 60 62 60 55 49 50 55 51 55 54 52 51 57 56 47 49 51 53 46 40 42 46 45 39 34 37 40 37 38 41 39 41 42 40 36 33 33 34 25 24 22
47 47 47 53 52 50 48 49 49 51 60 53 50 55 47 52 57 50 42 37 35 35 40 35 33 36 34 34 35 38 38 38 40 39 36 36 32 29 31 31 27 23 19
37 38 42 45 46 43 45 47 46 47 50 63 49 48 48 54 50 37 30 29 33 35 34 35 34 30 32 36 37 38 38 37 36 35 35 32 29 29 28 27 28 19 21
36 43 35 34 38 41 47 51 56 48 47 56 57 54 48 54 40 34 29 30 34 35 36 35 32 33 31 34 36 38 36 36 33 32 32 28 27 27 25 27 25 19 21
37 37 36 34 32 30 39 44 40 44 46 51 52 43 36 32 32 31 30 33 34 30 36 35 31 27 31 34 35 36 34 34 32 31 29 27 27 29 26 26 24 20 20
36 37 39 37 30 27 24 26 31 39 40 35 27 24 23 25 26 28 30 31 32 33 32 27 25 27 31 34 34 34 33 33 32 30 29 28 28 31 28 27 26 24 23
36 36 37 39 29 24 22 18 18 21 24 22 19 18 18 21 25 28 28 29 28 24 20 22 26 30 33 35 36 36 34 32 31 30 30 29 30 31 29 27 26 25 25
39 39 39 34 36 25 22 20 18 15 16 17 14 13 16 21 23 24 20 18 18 18 22 26 29 31 33 35 37 35 34 31 31 32 33 32 32 31 31 31 29 29 29
46 44 40 36 32 34 20 9 13 15 17 16 12 13 20 23 22 17 15 16 19 23 26 28 29 31 34 36 35 34 33 31 32 34 36 35 34 33 33 34 33 33 34
55 56 48 39 31 29 23 13 19 18 15 9 10 15 17 16 15 16 18 21 23 25 27 29 31 33 33 32 32 32 32 33 34 36 39 38 37 38 38 39 39 36 36
45 46 43 44 32 25 26 26 17 22 15 11 12 15 17 19 20 21 23 24 25 27 30 33 33 33 33 31 31 32 33 36 37 37 40 42 42 42 41 43 41 40 40
30 20 22 19 28 24 22 22 20 18 17 18 21 22 22 24 24 25 26 28 30 31 33 35 35 35 33 31 32 32 34 36 37 38 40 43 45 44 44 45 43 43 44
14 12 16 15 15 16 17 21 22 22 21 22 25 28 28 27 28 29 30 31 33 35 36 37 35 34 33 32 32 33 34 35 36 38 39 42 45 47 46 45 46 47 46
19 12 9 10 12 14 16 18 22 23 25 27 28 30 30 30 33 35 36 37 37 37 36 36 36 36 36 35 36 36 35 35 37 37 38 39 42 45 46 46 48 48 47
15 12 10 11 12 13 16 20 23 26 29 31 32 33 34 34 36 36 38 38 36 36 37 37 36 36 37 37 37 38 37 37 37 37 39 42 44 45 45 46 47 47 47
17 18 21 23 21 21 21 23 26 28 30 33 34 33 33 33 32 31 31 32 33 34 35 36 36 36 38 39 40 39 38 39 39 40 41 42 43 45 46 46 46 47 48
16 17 16 17 19 21 23 25 27 30 32 34 35 35 35 35 34 33 33 33 34 34 36 37 39 38 38 39 39 40 40 40 41 41 42 43 44 44 45 46 46 46 47
10 10 10 12 13 15 17 19 21 24 26 28 29 31 33 35 35 33 33 34 34 36 36 37 38 38 38 39 39 38 39 39 40 41 42 43 43 44 45 45 45 45 47
9 11 13 15 17 19 22 24 26 27 28 29 29 29 28 27 28 28 29 30 30 32 33 34 35 36 36 36 36 36 37 38 39 40 41 42 43 43 44 45 48 50 52
13 15 19 21 23 25 27 30 31 31 29 27 25 24 24 23 24 25 25 25 26 27 28 29 30 31 31 32 33 33 34 35 37 38 39 40 42 44 46 48 49 52 55
16 20 23 25 27 29 30 30 28 26 24 22 21 20 19 19 19 19 19 19 20 21 21 22 23 25 26 28 30 32 33 34 36 39 41 43 44 45 48 50 53 55 56
Wind_Direction
283 280 278 276 274 271 265 264 265 270 273 275 275 275 271 271 272 274 275 278 281 283 286 283 281 278 277 260 260 255 264 273 284 299 308 318 317 318 318 310 299 296 294
283 284 283 279 275 272 270 267 266 267 270 270 272 278 279 275 275 276 276 274 278 284 286 271 275 273 257 258 257 258 266 276 290 302 309 309 312 315 312 307 303 302 301
284 282 279 276 273 272 271 269 267 266 266 268 270 273 277 279 278 278 278 279 281 279 274 264 267 262 250 255 259 260 268 283 297 301 304 308 308 309 311 307 306 304 308
281 280 279 277 275 273 271 268 265 264 265 265 266 269 272 276 277 279 278 277 278 278 267 268 263 256 248 259 263 266 273 287 297 298 301 305 307 312 310 306 307 305 314
288 284 281 278 275 269 262 260 257 259 260 258 259 263 272 276 272 273 274 276 276 271 268 261 260 253 252 260 266 268 275 289 294 297 298 302 306 309 305 306 303 304 318
284 288 287 280 275 274 268 258 256 250 253 261 260 256 264 266 266 270 273 274 273 264 258 259 252 244 255 264 266 273 283 289 294 290 297 300 301 303 300 300 303 312 316
305 300 293 282 276 273 264 253 253 255 248 252 248 256 267 261 273 271 275 269 263 257 249 246 245 249 258 266 274 278 286 290 286 289 297 298 298 299 297 293 300 301 315
323 319 304 295 282 270 264 257 258 251 247 250 254 252 262 260 271 267 255 257 256 246 241 247 250 255 263 271 275 284 285 280 284 292 294 294 297 294 290 288 289 293 304
330 334 304 309 292 271 256 257 254 251 247 255 260 249 247 259 266 245 247 246 248 245 252 249 251 258 267 274 280 279 275 281 287 288 288 288 287 288 285 285 284 288 283
321 331 324 331 313 291 271 267 259 240 248 252 259 252 251 240 241 244 249 249 251 260 254 249 250 262 272 275 275 273 278 284 285 283 283 281 279 282 279 279 279 277 277
318 328 334 326 333 320 306 258 242 241 252 234 217 222 230 240 245 246 245 248 255 243 240 245 257 267 269 271 272 279 284 284 280 277 276 275 276 278 276 274 275 277 277
309 315 321 329 323 325 300 272 234 222 218 221 220 207 216 234 242 241 239 238 238 246 258 264 265 266 270 273 276 279 279 278 279 275 271 271 270 272 274 273 277 280 282
299 304 308 318 321 317 311 274 244 225 189 177 185 199 221 229 236 234 232 242 250 254 258 262 267 270 272 276 279 280 276 278 278 274 271 269 268 269 271 275 277 280 284
292 294 298 302 313 315 306 266 186 176 184 191 221 235 241 245 238 234 241 252 260 264 267 270 271 274 275 277 279 278 276 274 275 273 270 266 267 268 269 271 273 277 281
284 284 282 283 293 305 303 276 223 225 205 234 246 237 231 235 242 250 253 258 261 265 270 274 277 280 281 280 280 279 276 272 274 274 270 266 266 267 269 273 275 275 278
286 284 278 264 271 285 297 294 233 214 232 220 217 236 259 265 265 257 256 262 269 273 276 277 276 277 278 281 283 280 277 273 273 274 273 269 268 269 272 274 274 276 277
291 276 241 236 259 271 281 285 264 239 231 241 251 262 272 276 267 263 267 271 274 275 275 274 273 274 273 276 277 279 277 274 273 272 273 274 273 272 273 275 277 276 276
313 297 245 242 244 259 260 258 249 239 256 261 266 273 275 268 266 269 272 276 276 274 274 271 269 267 272 276 277 279 276 275 274 274 276 275 274 273 275 277 276 277 278
274 279 279 255 247 238 236 238 245 256 264 271 268 270 272 272 274 274 274 275 274 272 269 269 266 267 272 274 275 277 278 278 277 276 277 278 279 277 278 278 278 278 280
275 279 272 263 252 267 262 254 255 261 268 273 274 274 273 273 272 272 272 271 270 266 264 267 268 269 271 272 272 275 276 277 277 276 277 276 276 278 278 278 280 281 282
282 275 271 271 271 268 269 270 270 270 272 274 274 275 276 277 278 277 277 275 271 268 265 266 267 268 269 271 271 272 272 272 271 271 274 277 278 279 280 281 282 282 283
282 281 285 283 278 276 275 275 274 275 275 276 276 277 276 275 275 275 272 271 270 268 267 268 269 269 269 269 269 269 270 272 274 275 276 278 280 281 282 283 284 284 283
313 309 308 307 304 300 297 295 293 292 292 290 288 285 280 274 272 274 274 273 272 271 269 268 267 267 267 267 269 271 273 275 276 279 280 282 283 284 284 284 284 284 285
318 319 318 314 310 306 303 299 296 294 292 291 290 290 288 284 277 274 275 274 273 272 272 270 269 270 272 273 274 275 276 279 281 282 283 284 284 285 285 286 288 289 289
310 315 315 313 309 307 304 300 299 298 297 297 297 297 295 292 285 280 277 278 279 279 278 278 278 279 280 280 281 281 281 282 284 285 285 285 287 288 289 290 291 291 292
311 315 315 315 313 310 308 306 303 301 299 299 301 302 301 300 294 290 285 282 281 281 281 279 279 280 281 282 284 285 286 285 285 287 289 290 291 292 292 293 294 295 296